Other Public Products
Issued by NWS Grand Forks, ND

Home | Current Version | Previous Version | Text Only | Print | Product List | Glossary Off
Versions: 1 2 3 4 5 6 7 8 9 10 11 12 13 14 15 16 17 18 19 20 21 22 23 24 25 26 27 28 29 30 31 32 33 34 35 36 37 38 39 40 41 42 43 44 45 46 47 48 49 50

000
FPUS83 KFGF 260631
OPUFGF
PRAIRIE TO PINES WEATHER ROUNDUP
NATIONAL WEATHER SERVICE EASTERN NORTH DAKOTA/GRAND FORKS ND
100 AM CDT MON JUN 26 2017

 **SATELLITE DATA USED TO AUGMENT SKY COVER AT AUTOMATED STATIONS**
 *****  WEATHER ACROSS EASTERN NORTH DAKOTA  *****

CITY           SKY/WX    TMP DP  RH WIND       PRES   REMARKS
GRAND FORKS    FAIR      46  43  89 W6        30.21R
6HR MIN TEMP:  46; 6HR MAX TEMP:  66;

GRAND FORKS AF FAIR      42  41  94 NW3       30.21S
GRAND CITY NWS NOT AVBL
BUXTON           N/A     51  46  84 NW3         N/A
DEVILS LAKE    FAIR      49  41  74 CALM      30.25R
6HR MIN TEMP:  47; 6HR MAX TEMP:  64;

FARGO          FAIR      47  39  74 CALM      30.20S
6HR MIN TEMP:  45; 6HR MAX TEMP:  68;

WAHPETON ARPT  FAIR      46  39  76 N5        30.21R
$$

 *****  WEATHER ACROSS CENTRAL AND WESTERN NORTH DAKOTA  *****

CITY           SKY/WX    TMP DP  RH WIND       PRES   REMARKS
JAMESTOWN      FAIR      47  40  76 CALM      30.23S
6HR MIN TEMP:  46; 6HR MAX TEMP:  66;

BISMARCK       FAIR      50  44  80 CALM      30.26R
6HR MIN TEMP:  48; 6HR MAX TEMP:  72;

MINOT          MOCLDY    52  41  66 SW3       30.24S
6HR MIN TEMP:  48; 6HR MAX TEMP:  67;

MINOT AFB      FAIR      43  39  85 CALM      30.24R
6HR MIN TEMP:  43; 6HR MAX TEMP:  67;

GARRISON         N/A     50  40  68 CALM      30.25R
6HR MIN TEMP:  46; 6HR MAX TEMP:  66;

WILLISTON      FAIR      50  43  77 CALM      30.24R
6HR MIN TEMP:  50; 6HR MAX TEMP:  75;

DICKINSON      FAIR      48  38  68 E7        30.23S
6HR MIN TEMP:  48; 6HR MAX TEMP:  71;

HETTINGER      FAIR      47  38  71 E6        30.25S
6HR MIN TEMP:  45; 6HR MAX TEMP:  73;

$$

 *****  OTHER OBSERVATIONS NORTHEAST NORTH DAKOTA  *****

CITY           SKY/WX    TMP DP  RH WIND       PRES   REMARKS
WALHALLA       NOT AVBL
LANGDON        FAIR      43  43 100 CALM      30.23S
CAVALIER       FAIR      46  43  87 W5        30.21R
GRAFTON        FAIR      50  45  81 W7        30.22S
CANDO          NOT AVBL
FORT TOTTEN      N/A     46  42  87 CALM      29.95S
ROLLA            N/A     43  41  93 CALM      30.25S
RUGBY          NOT AVBL
 ***** THE ABOVE OBSERVATIONS ARE NON NWS ARE NOT QUALITY
        CONTROLLED AND MAY MIS-REPORT RAIN FOR SNOW...
$$

 *****  OTHER OBSERVATIONS SOUTHEAST NORTH DAKOTA *****

CITY           SKY/WX    TMP DP  RH WIND       PRES   REMARKS
COOPERSTOWN    FAIR      46  41  81 CALM      30.24S
VALLEY CITY    FAIR      46  43  87 CALM      30.24S
OAKES          NOT AVBL
GWINNER        CLOUDY    48  43  81 CALM      30.23R
SHEYENNE NWR     N/A     50  41  70 N2        29.95S
BUFFALO          N/A     48  35  61 NW3         N/A
WYNDMERE       NOT AVBL
 ***** THE ABOVE OBSERVATIONS ARE NON NWS ARE NOT QUALITY
       CONTROLLED AND MAY MIS-REPORT RAIN FOR SNOW...
$$

  *****  WEATHER ACROSS NORTHERN MINNESOTA  *****

CITY           SKY/WX    TMP DP  RH WIND       PRES   REMARKS
FLAG ISLAND    FAIR      52  46  82 W9        30.14S
WARROAD        FAIR      46  43  87 W3        30.17S
ROSEAU         FAIR      48  43  81 W8        30.17F
HALLOCK        FAIR      45  43  93 CALM      30.20R
THF RVR FALLS  FAIR      46  43  89 W6        30.20S
6HR MIN TEMP:  46; 6HR MAX TEMP:  60;

HALSTAD          N/A     43  39  87 NW7         N/A
FOSSTON        FAIR      43  41  93 NW3       30.19F
BAUDETTE       FAIR      46  44  93 W6        30.15S
6HR MIN TEMP:  46; 6HR MAX TEMP:  60;

WASKISH        FAIR      50  46  87 NW8       30.16S
CROOKSTON      FAIR      43  39  87 CALM      30.21S
$$
  *****  WEATHER ACROSS CENTRAL AND WEST MINNESOTA  *****

CITY           SKY/WX    TMP DP  RH WIND       PRES   REMARKS
BEMIDJI        FAIR      42  41  95 NW5       30.17S
PARK RAPIDS    FAIR      45  39  79 NW5       30.17S
6HR MIN TEMP:  44; 6HR MAX TEMP:  62;

WADENA         FAIR      45  41  87 NW3       30.18S
DETROIT LAKES  FAIR      48  43  81 NW3       30.20S
MOORHEAD       FAIR      46  39  76 CALM      30.21S
FERGUS FALLS   FAIR      52  43  71 N3        30.18S
ELBOW LAKE     FAIR      50  46  88 CALM      30.19S
6HR MIN TEMP:  51; 6HR MAX TEMP:  62;

MORRIS MN      FAIR      52  50  93 NW6       30.19R
STAPLES        FAIR      46  41  81 NW6       30.17S
WHEATON        FAIR      52  46  82 NW3       30.22S
$$
  *****  WEATHER ELSEWHERE ACROSS MINNESOTA  *****

CITY           SKY/WX    TMP DP  RH WIND       PRES   REMARKS
DULUTH         FAIR      43  42  97 NW5       30.10S
6HR MIN TEMP:  43; 6HR MAX TEMP:  56;

INTRNTL FALLS  FAIR      43  41  93 NW3       30.12F
6HR MIN TEMP:  43; 6HR MAX TEMP:  56; 6HR PCP:  0.04;

ELY            LGT RAIN  46  46 100 CALM      30.10F
CLOQUET        FAIR      43  39  87 NW5       30.12S
BRAINERD       FAIR      49  43  80 N7        30.16R
6HR MIN TEMP:  49; 6HR MAX TEMP:  64;

HIBBING        FAIR      37  37 100 CALM      30.12S FOG
6HR MIN TEMP:  37; 6HR MAX TEMP:  52; 6HR PCP: TRACE;

ALEXANDRIA     FAIR      52  44  74 N5        30.19R
6HR MIN TEMP:  52; 6HR MAX TEMP:  63;

SAINT CLOUD    FAIR      46  43  89 NW3       30.15S
6HR MIN TEMP:  46; 6HR MAX TEMP:  65;

MINNEAPOLIS    FAIR      57  43  59 N5        30.14R
6HR MIN TEMP:  56; 6HR MAX TEMP:  68;

$$

  *****  WEATHER ACROSS SOUTH DAKOTA  *****

CITY           SKY/WX    TMP DP  RH WIND       PRES   REMARKS
SIOUX FALLS    RAIN      56  54  93 CALM      30.23R
6HR MIN TEMP:  54; 6HR MAX TEMP:  72; 6HR PCP:  0.13;

BROOKINGS      FAIR      51  49  92 CALM      30.22S
WATERTOWN      FAIR      48  44  86 CALM      30.21R
6HR MIN TEMP:  48; 6HR MAX TEMP:  58; 6HR PCP: TRACE;

HURON          FAIR      55  51  86 CALM      30.22R
6HR MIN TEMP:  55; 6HR MAX TEMP:  73; 6HR PCP:  0.01;

SISSETON         N/A     51  47  86 NW9       30.20R
ABERDEEN       FAIR      48  45  89 N3        30.23R
6HR MIN TEMP:  47; 6HR MAX TEMP:  66;

MITCHELL       MOCLDY    58  52  80 NE10      30.22R
PIERRE         FAIR      50  44  80 NE7       30.21R
6HR MIN TEMP:  50; 6HR MAX TEMP:  79;

MOBRIDGE       FAIR      55  43  63 E10       30.21S
RAPID CITY     FAIR      55  37  50 CALM      30.27R
6HR MIN TEMP:  54; 6HR MAX TEMP:  79;

$$

  *****  SOME WEATHER IN NEARBY STATES *****

CITY           SKY/WX    TMP DP  RH WIND       PRES   REMARKS
GLASGOW MT     FAIR      59  37  44 E12       30.18S
6HR MIN TEMP:  59; 6HR MAX TEMP:  80;

GREAT FALLS MT FAIR      63  39  41 E9        30.13F
6HR MIN TEMP:  63; 6HR MAX TEMP:  81;

CHEYENNE WY    FAIR      55  51  86 S12       30.35F
6HR MIN TEMP:  55; 6HR MAX TEMP:  71;

SCOTTSBLUFF NE FAIR      64  53  67 S10       30.24R
6HR MIN TEMP:  63; 6HR MAX TEMP:  78;

OMAHA NE       FAIR      59  48  67 S8        30.18F
6HR MIN TEMP:  59; 6HR MAX TEMP:  76;

DES MOINES IA  FAIR      60  48  64 CALM      30.19F
6HR MIN TEMP:  60; 6HR MAX TEMP:  73;

DAVENPORT IA   FAIR      53  48  83 W6        30.15F
6HR MIN TEMP:  53; 6HR MAX TEMP:  67;

CHICAGO IL     FAIR      57  49  74 W3        30.10F
6HR MIN TEMP:  57; 6HR MAX TEMP:  68;

EAU CLAIRE WI  FAIR      48  46  93 W3        30.09F
6HR MIN TEMP:  46; 6HR MAX TEMP:  63; 6HR PCP:  0.03;

LA CROSSE WI   FAIR      57  50  77 CALM      30.10F
6HR MIN TEMP:  56; 6HR MAX TEMP:  72;

$$

  *****  SOME NATIONAL WEATHER *****

CITY           SKY/WX    TMP DP  RH WIND       PRES   REMARKS
LA GUARDIA NY  FAIR      70  52  52 N10       29.98S



USA.gov is the U.S. government's official web portal to all federal, state and local government web resources and services.